INTELSAT 14 (IS-14)

Last updated on Sun Oct 19 2025 00:02:47 GMT+0000 (Coordinated Universal Time)

1 36097U 09064A 25291.25937593 .00000000 00000+0 00000+0 0 9994 2 36097 0.0180 116.3486 0002390 91.5590 227.4705 1.00270879 58170
UTC large
Height (km)
Speed (km/s)
/
Latitude / Longitude
Inclination (degrees)
Orbital Period (minutes)
Azimuth
Elevation
Range (km)
Doppler Factor

Next 0 passes for location: London (51.5072 / 0.1276)

Sorry there are no passes over London.